STARLINK-32602 (62181 NORAD) Tracking and Keplerian Element Data

This shows tracking and keplerian element data for the satellite.

Feedback or suggestion? Click here.




ElementValue
Catalog62181
NameSTARLINK-32602
Epoch Orbit1017
Epoch Day35.16986028
Epoch Year2025
RAAN89.1391
Inclination69.9973
Eccentricity0.0003956
Argument of Perigee292.5321
Mean Anonmoly67.5439
Mean Motion15.38336145
Decay Rate0.00015124
L11 62181U 24225U 25035.16986028 .00015124 00000+0 40186-3 0 9992
L22 62181 69.9973 89.1391 0003956 292.5321 67.5439 15.38336145 10173



Live tracking and technical data element details for STARLINK-32602 (NORAD 62181). STARLINK-32602 can be tracked NOW for your location showing map with azimuth and elevation plus other details from your city location.







IsCatalogInMostPopularTable: catalog: 62181, numindb: 17
Update: records affected: 1



GetName: 62181 STARLINK-32602

Hit Count: updated at: Sat, 24 May 2025 16:50:24 GMT